Location: Guayaquil
(2.1667°S, 79.9000°W)
Time: 08:09:45
(UTC-05:00)

N. Korean satellite - Visible Passes

Search period start: 19 June 2019 00:00
Search period end: 29 June 2019 00:00
Orbit: 455 x 510 km, 97.2° (Epoch: 18 June)

Date Brightness Start Highest point End Pass type
(mag) Time Alt. Az. Time Alt. Az. Time Alt. Az.
21 Jun 7.9 05:41:25 10° NNE 05:44:45 40° ESE 05:48:10 10° S visible
22 Jun 9.5 05:17:33 10° ENE 05:19:48 16° ESE 05:22:06 10° SE visible
25 Jun 8.4 05:34:44 10° NE 05:37:57 32° ESE 05:41:14 10° SSE visible
25 Jun 9.8 18:56:42 10° WSW 18:57:44 11° WSW 18:58:46 10° W visible
26 Jun 9.6 05:11:19 10° ENE 05:13:00 13° ESE 05:14:43 10° SE visible
28 Jun 7.0 05:52:33 10° NNE 05:56:07 69° E 05:59:46 10° S visible
